Weather History for KESN - April, 2014

Change the Weather History Date:

Friday, April 18, 2014

  Actual Average Record
Temperature  
Mean Temperature 48 °F -  
Max Temperature 55 °F 72 °F 90 °F (1976)
Min Temperature 41 °F 46 °F 33 °F (1951)
Degree Days  
Heating Degree Days 17    
Moisture  
Dew Point 36 °F    
Average Humidity 72    
Maximum Humidity 82    
Minimum Humidity 51    
Precipitation  
Precipitation 0.00 in - - ()
Sea Level Pressure  
Sea Level Pressure 30.49 in    
Wind  
Wind Speed 5 mph (East)    
Max Wind Speed 9 mph    
Max Gust Speed -    
Visibility 10 miles    
Events      
Averages and records for this station are not official NWS values.
T = Trace of Precipitation, MM = Missing Value Source: NWS Daily Summary

Daily Weather History Graph

Daily Weather History Graph

Search for Another Location

Airport or City:

Trip Planner

Search our weather history database for the weather conditions in past years. The results will help you decide how hot, cold, wet, or windy it might be!

Date:

Astronomy

Apr. 18, 2014 Rise Set
Actual Time 6:23 AM EDT 7:44 PM EDT
Civil Twilight 5:55 AM EDT 8:11 PM EDT
Nautical Twilight 5:22 AM EDT 8:45 PM EDT
Astronomical Twilight 4:48 AM EDT 9:20 PM EDT
Moon 11:25 PM EDT (4/18) 8:45 AM EDT (4/18)
Length of Visible Light 14h 15m
Length of Day
13h 20m
Waning Gibbous, 87% of the Moon is Illuminated
Apr 18
Waning Gibbous
Apr 22
Last Quarter
Apr 29
New
May 6
First Quarter
May 14
Full

Hourly Weather History & Observations

Time (EDT) Temp. Windchill Dew Point Humidity Pressure Visibility Wind Dir Wind Speed Gust Speed Precip Events Conditions
12:08 AM 41.9 °F 38.2 °F 33.3 °F 71% 30.64 in 10.0 mi East 5.8 mph - N/A   Mostly Cloudy
12:28 AM 41.9 °F 36.9 °F 33.1 °F 71% 30.63 in 10.0 mi SE 8.1 mph - N/A   Mostly Cloudy
12:48 AM 41.9 °F 38.2 °F 33.3 °F 71% 30.62 in 10.0 mi East 5.8 mph - N/A   Mostly Cloudy
1:08 AM 41.9 °F 38.2 °F 33.6 °F 72% 30.62 in 10.0 mi East 5.8 mph - N/A   Mostly Cloudy
1:28 AM 41.9 °F 38.2 °F 33.6 °F 72% 30.60 in 10.0 mi East 5.8 mph - N/A   Mostly Cloudy
1:48 AM 41.9 °F 38.2 °F 33.8 °F 73% 30.60 in 10.0 mi East 5.8 mph - N/A   Mostly Cloudy
2:08 AM 41.4 °F 37.6 °F 33.6 °F 74% 30.58 in 10.0 mi ENE 5.8 mph - N/A   Mostly Cloudy
2:28 AM 41.4 °F 36.8 °F 33.6 °F 74% 30.57 in 10.0 mi East 6.9 mph - N/A   Mostly Cloudy
2:48 AM 41.4 °F 35.7 °F 33.3 °F 73% 30.55 in 10.0 mi East 9.2 mph - N/A   Mostly Cloudy
3:08 AM 41.0 °F 35.8 °F 33.3 °F 74% 30.55 in 10.0 mi East 8.1 mph - N/A   Scattered Clouds
3:28 AM 41.2 °F 37.3 °F 33.4 °F 74% 30.54 in 10.0 mi East 5.8 mph - N/A   Scattered Clouds
3:48 AM 41.2 °F 36.6 °F 33.4 °F 74% 30.54 in 10.0 mi East 6.9 mph - N/A   Scattered Clouds
4:08 AM 41.2 °F 36.0 °F 33.8 °F 75% 30.53 in 10.0 mi East 8.1 mph - N/A   Scattered Clouds
4:28 AM 41.2 °F 36.6 °F 34.0 °F 76% 30.53 in 10.0 mi East 6.9 mph - N/A   Scattered Clouds
4:48 AM 41.4 °F 36.2 °F 34.0 °F 75% 30.52 in 10.0 mi East 8.1 mph - N/A   Scattered Clouds
5:08 AM 41.4 °F 37.6 °F 34.2 °F 76% 30.52 in 10.0 mi East 5.8 mph - N/A   Scattered Clouds
5:28 AM 41.2 °F 37.3 °F 34.0 °F 76% 30.52 in 10.0 mi East 5.8 mph - N/A   Scattered Clouds
5:45 AM 41.0 °F 38.0 °F 33.8 °F 76% 30.53 in 10.0 mi ENE 4.6 mph - N/A   Mostly Cloudy
5:48 AM 41.4 °F 37.6 °F 34.0 °F 75% 30.53 in 10.0 mi East 5.8 mph - N/A   Scattered Clouds
6:09 AM 41.4 °F - 34.5 °F 77% 30.54 in 10.0 mi Calm Calm - N/A   Scattered Clouds
6:24 AM 41.5 °F - 34.7 °F 77% 30.55 in 10.0 mi Calm Calm - N/A   Scattered Clouds
6:45 AM 41.0 °F 39.0 °F 33.8 °F 76% 30.55 in 10.0 mi East 3.5 mph - N/A   Overcast
7:45 AM 41.0 °F 36.4 °F 35.6 °F 81% 30.54 in 10.0 mi ENE 6.9 mph - N/A   Overcast
8:50 AM 42.8 °F 38.6 °F 35.6 °F 76% 30.53 in 10.0 mi ENE 6.9 mph - N/A   Overcast
9:50 AM 44.6 °F - 35.6 °F 71% 30.53 in 10.0 mi Calm Calm - N/A   Overcast
10:57 AM 46.4 °F 42.9 °F 35.6 °F 66% 30.52 in 10.0 mi NE 6.9 mph - N/A   Overcast
11:55 AM 48.2 °F - 37.4 °F 66% 30.51 in 10.0 mi NE 6.9 mph - N/A   Overcast
12:45 PM 50.0 °F - 37.4 °F 62% 30.49 in 10.0 mi Calm Calm - N/A   Mostly Cloudy
1:50 PM 53.6 °F - 39.2 °F 58% 30.46 in 10.0 mi NNE 5.8 mph - N/A   Overcast
2:49 PM 55.4 °F - 39.2 °F 54% 30.43 in 10.0 mi East 6.9 mph - N/A   Mostly Cloudy
3:45 PM 55.4 °F - 39.2 °F 54% 30.40 in 10.0 mi East 6.9 mph - N/A   Mostly Cloudy
4:59 PM 55.4 °F - 37.4 °F 51% 30.38 in 10.0 mi Calm Calm - N/A   Overcast
5:50 PM 53.6 °F - 41.0 °F 62% 30.36 in 10.0 mi NW 6.9 mph - N/A   Overcast
6:50 PM 50.0 °F - 41.0 °F 71% 30.36 in 10.0 mi Calm Calm - N/A   Overcast
7:50 PM 50.0 °F - 41.0 °F 71% 30.33 in 10.0 mi Calm Calm - N/A   Overcast
8:47 PM 50.0 °F - 42.8 °F 76% 30.34 in 10.0 mi Calm Calm - N/A   Clear
10:29 PM 47.8 °F - 42.1 °F 80% 30.35 in 10.0 mi SE 3.5 mph - N/A   Clear
10:50 PM 47.3 °F - 41.9 °F 82% 30.34 in 10.0 mi SSE 4.6 mph - N/A   Clear
11:10 PM 47.3 °F - 41.5 °F 80% 30.34 in 10.0 mi SSE 3.5 mph - N/A   Clear
11:31 PM 46.8 °F - 41.5 °F 82% 30.33 in 10.0 mi SE 4.6 mph - N/A   Clear
11:51 PM 46.8 °F - 41.5 °F 82% 30.32 in 10.0 mi Calm Calm - N/A   Clear